Tracking 18851 objects as of 25-Nov-2017
HD Live streaming from Space Station
objects crossing your sky now

OPS 2366 (TRANSIT 14)

Track OPS 2366 (TRANSIT 14) now!
10-day predictions
OPS 2366 (TRANSIT 14) is classified as:


NORAD ID: 2401
Int'l Code: 1966-076A
Perigee: 1,042.8 km
Apogee: 1,091.8 km
Inclination: 88.9 °
Period: 106.4 minutes
Semi major axis: 7438 km
RCS: 1.5965 m2 (large)
Launch date: August 18, 1966
Source: United States (US)
Launch site: AIR FORCE WESTERN TEST RANGE (AFWTR)
aabbcc
Your satellite tracking list
Your tracking list is empty




NASA's NSSDC Master Catalog

Two Line Element Set (TLE):
1  2401U 66076A   17328.87166907 +.00000071 +00000-0 +87468-4 0  9992
2  2401 088.8557 067.4522 0032885 018.6817 097.8798 13.53294853528199
Source of the keplerian elements: AFSPC